GSAT0208 (GALILEO 11)

Last updated on Thu Aug 20 2026 00:02:47 GMT+0000 (Coordinated Universal Time)

1 41175U 15079B 26231.02402080 -.00000029 00000+0 00000+0 0 9990 2 41175 55.8635 99.5339 0003893 358.7978 1.2801 1.70473765 66262
UTC large
Height (km)
Speed (km/s)
/
Latitude / Longitude
Inclination (degrees)
Orbital Period (minutes)
Azimuth
Elevation
Range (km)
Doppler Factor

Next 0 passes for location: London (51.5072 / 0.1276)

No passes found over London.
GSAT0208 (GALILEO 11)